Weather History for Worcester, MA

Change the Weather History Date:

Friday, February 1, 2013

  Actual Average Record
Temperature  
Mean Temperature 24 °F 25 °F  
Max Temperature 29 °F 32 °F 61 °F (1989)
Min Temperature 18 °F 17 °F -11 °F (1935)
Degree Days  
Heating Degree Days 41 40  
Month to date heating degree days 41 40  
Since 1 July heating degree days 3432 3813  
Cooling Degree Days 0 0  
Month to date cooling degree days 0 0  
Year to date cooling degree days 0 0  
Moisture  
Dew Point 6 °F    
Average Humidity 48    
Maximum Humidity 59    
Minimum Humidity 37    
Precipitation  
Precipitation T in 0.11 in 1.69 in (2008)
Month to date precipitation T 0.11  
Year to date precipitation 1.95 3.60  
Sea Level Pressure  
Sea Level Pressure 29.81 in    
Wind  
Wind Speed 16 mph (West)    
Max Wind Speed 29 mph    
Max Gust Speed 41 mph    
Visibility 10 miles    
Events      
T = Trace of Precipitation, MM = Missing Value Source: NWS Daily Summary

Daily Weather History Graph

Daily Weather History Graph

Search for Another Location

Airport:

Trip Planner

Search our weather history database for the weather conditions in past years. The results will help you decide how hot, cold, wet, or windy it might be!

Date:

Astronomy

Feb. 01, 2013 Rise Set
Actual Time 7:00 AM EST 5:02 PM EST
Civil Twilight 6:30 AM EST 5:31 PM EST
Nautical Twilight 5:57 AM EST 6:05 PM EST
Astronomical Twilight 5:24 AM EST 6:38 PM EST
Moon 11:14 PM EST (2/1) 9:24 AM EST (2/1)
Length of Visible Light 11h 00m
Length of Day
10h 01m
Waning Gibbous, 70% of the Moon is Illuminated
Feb 1
Waning Gibbous
Feb 3
Last Quarter
Feb 10
New
Feb 17
First Quarter
Feb 25
Full

Hourly Weather History & Observations

Time (EST) Temp. Windchill Dew Point Humidity Pressure Visibility Wind Dir Wind Speed Gust Speed Precip Events Conditions
12:54 AM 27.0 °F 13.5 °F 7.0 °F 43% 29.60 in 10.0 mi West 19.6 mph 31.1 mph 0.00 in   Mostly Cloudy
1:54 AM 27.0 °F 13.9 °F 9.0 °F 47% 29.62 in 10.0 mi West 18.4 mph 24.2 mph N/A   Mostly Cloudy
2:54 AM 25.0 °F 13.6 °F 6.1 °F 45% 29.63 in 10.0 mi West 12.7 mph 27.6 mph N/A   Scattered Clouds
3:54 AM 25.0 °F 11.3 °F 3.9 °F 41% 29.65 in 10.0 mi West 18.4 mph 32.2 mph N/A   Clear
4:54 AM 24.1 °F 12.0 °F 10.0 °F 55% 29.67 in 10.0 mi WSW 13.8 mph - N/A   Clear
5:54 AM 23.0 °F 9.6 °F 8.1 °F 53% 29.67 in 10.0 mi WSW 16.1 mph 24.2 mph N/A   Mostly Cloudy
6:54 AM 23.0 °F 10.1 °F 9.0 °F 55% 29.71 in 10.0 mi WSW 15.0 mph 24.2 mph N/A   Overcast
7:54 AM 23.0 °F 9.2 °F 10.0 °F 58% 29.75 in 10.0 mi WSW 17.3 mph 24.2 mph 0.00 in   Mostly Cloudy
8:54 AM 24.1 °F 10.6 °F 10.9 °F 57% 29.77 in 10.0 mi WSW 17.3 mph 28.8 mph N/A   Mostly Cloudy
9:54 AM 25.0 °F 10.9 °F 8.1 °F 49% 29.78 in 10.0 mi WNW 19.6 mph 27.6 mph N/A   Partly Cloudy
10:54 AM 26.1 °F 11.6 °F 5.0 °F 41% 29.78 in 10.0 mi West 21.9 mph 31.1 mph N/A   Clear
11:54 AM 27.0 °F 15.2 °F 5.0 °F 39% 29.77 in 10.0 mi WNW 15.0 mph 28.8 mph N/A   Partly Cloudy
12:54 PM 27.0 °F 13.2 °F 3.9 °F 37% 29.74 in 10.0 mi WNW 20.7 mph 29.9 mph N/A   Partly Cloudy
1:54 PM 27.0 °F 15.2 °F 3.0 °F 36% 29.76 in 10.0 mi WNW 15.0 mph 28.8 mph N/A   Mostly Cloudy
2:54 PM 26.1 °F 13.1 °F 3.9 °F 39% 29.80 in 10.0 mi WNW 17.3 mph 25.3 mph N/A   Overcast
3:54 PM 25.0 °F 10.9 °F 3.0 °F 39% 29.83 in 10.0 mi WNW 19.6 mph 28.8 mph N/A   Overcast
4:54 PM 24.1 °F 11.5 °F 3.9 °F 42% 29.87 in 10.0 mi WNW 15.0 mph 25.3 mph N/A   Overcast
5:54 PM 23.0 °F 10.6 °F 5.0 °F 46% 29.92 in 10.0 mi WNW 13.8 mph 27.6 mph N/A   Overcast
6:54 PM 21.0 °F 7.6 °F 6.1 °F 53% 29.97 in 10.0 mi West 15.0 mph 25.3 mph N/A   Clear
7:54 PM 21.0 °F 6.6 °F 3.0 °F 46% 30.00 in 10.0 mi WNW 17.3 mph 27.6 mph N/A   Scattered Clouds
8:54 PM 19.9 °F 7.9 °F 3.0 °F 48% 30.02 in 10.0 mi West 11.5 mph 23.0 mph N/A   Clear
9:54 PM 19.0 °F 5.0 °F 1.0 °F 46% 30.04 in 10.0 mi West 15.0 mph 26.5 mph N/A   Clear
10:54 PM 19.0 °F 4.5 °F 3.0 °F 50% 30.06 in 10.0 mi West 16.1 mph 23.0 mph N/A   Overcast
11:54 PM 18.0 °F 4.2 °F 6.1 °F 60% 30.06 in 10.0 mi West 13.8 mph - N/A   Mostly Cloudy